#timestamp,LO_Frequency,Hit,StdDev 
1588078815.9,286047000.7,N
1588078835.7,286046998.3,N
1588078855.5,286046998.9,N
1588078875.4,286046998.4,N
1588078895.2,286047000.7,N
1588078915.1,286047000.4,N
1588078916.0,286047000.4,N
1588078935.8,286047000.0,N
1588078955.6,286047002.7,N
1588078975.5,286047000.7,N
1588078995.3,286046996.6,N
1588079015.2,286046997.2,N
1588079035.9,286046996.6,N
1588079055.7,286046999.1,N
1588079075.6,286046999.2,N
1588079095.4,286046998.5,N
1588079115.2,286046998.5,N
1588079135.1,286046999.4,N
1588079136.0,286046999.4,N
1588079155.8,286046998.2,N
1588079175.7,286046998.6,N
1588079195.5,286047000.8,N
1588079215.3,286047001.1,N
1588079235.2,286047001.1,N
1588079255.0,286046998.7,N
1588079255.9,286046998.7,N
1588079275.8,286046998.5,N
1588079295.6,286046998.4,N
1588079315.4,286047000.7,N
1588079335.3,286047000.3,N
1588079355.1,286047001.1,N
1588079375.8,286046998.5,N
1588079395.7,286046998.9,N
1588079415.5,286047000.9,N
1588079435.4,286047000.9,N
1588079455.2,286047002.8,N
1588079475.0,286047002.7,N
1588079475.9,286047002.7,N
1588079495.8,286047000.0,N
1588079515.6,286047000.9,N
1588079535.5,286047000.0,N
1588079555.3,286046999.3,N
1588079575.1,286046999.1,N
1588079595.9,286046999.6,N
1588079615.7,286046996.5,N
1588079635.6,286046996.8,N
1588079655.4,286046996.9,N
1588079675.2,286046996.6,N
1588079695.1,286046998.6,N
1588079696.0,286046998.6,N
1588079715.8,286046998.2,N
1588079735.6,286046998.4,N
1588079755.5,286047001.1,N
1588079775.3,286047001.2,N
1588079795.2,286046998.6,N
1588079815.9,286046998.2,N
1588079835.7,286046998.8,N
1588079855.6,286046999.3,N
1588079875.4,286046999.2,N
1588079895.3,286046998.3,N
1588079915.1,286046998.8,N
1588079916.0,286046998.8,N
1588079935.8,286046998.1,N
1588079955.7,286046998.4,N
1588079975.5,286046998.5,N
1588079995.3,286047000.5,N
1588080015.2,286047000.3,N
1588080035.0,286047000.6,N
1588080035.9,286047000.6,N
1588080055.8,286047001.0,N
1588080075.6,286046998.4,N
1588080095.4,286046998.8,N
1588080115.3,286047000.8,N
1588080135.1,286047000.7,N
1588080155.9,286047000.8,N
1588080175.7,286046998.1,N
1588080195.5,286047002.5,N
1588080215.4,286047000.5,N
1588080235.2,286047000.9,N
1588080255.0,286047000.9,N
1588080256.0,286047000.9,N
1588080275.8,286047001.1,N
1588080295.6,286046998.4,N
1588080315.5,286047001.1,N
1588080335.3,286047001.0,N
1588080355.2,286047000.0,N
1588080375.9,286047000.2,N
1588080395.7,286047000.2,N
1588080415.6,286047000.9,N
1588080435.4,286046998.4,N
1588080455.2,286046998.3,N
1588080475.1,286046997.0,N
1588080476.0,286046997.0,N
1588080495.8,286046997.8,N
1588080515.7,286046998.2,N
1588080535.5,286046999.4,N
1588080555.3,286046998.8,N
1588080575.2,286046999.0,N
1588080595.0,286046998.5,N
1588080595.9,286046998.5,N
1588080615.8,286046998.5,N
1588080635.6,286046999.3,N
1588080655.4,286047001.0,N
1588080675.3,286047000.2,N
1588080695.1,286047001.8,N
1588080715.9,286047002.6,N
1588080735.7,286046999.9,N
1588080755.5,286047001.8,N
1588080775.4,286047000.3,N
1588080795.2,286046999.7,N
1588080815.0,286046998.7,N
1588080815.9,286046998.7,N
1588080835.8,286046996.9,N
1588080855.6,286046999.1,N
1588080875.5,286046997.4,N
1588080895.3,286046999.3,N
1588080915.1,286046996.5,N
1588080935.9,286046996.5,N
1588080955.7,286046999.5,N
1588080975.6,286046996.6,N
1588080995.4,286046998.6,N
1588081015.2,286046996.8,N
1588081035.1,286046996.4,N
1588081036.0,286046996.4,N
1588081055.8,286046996.8,N
1588081075.6,286046997.3,N
1588081095.5,286046997.9,N
1588081115.3,286046994.7,Y
1588081135.2,286046996.4,P
1588081155.9,286046993.5,P
1588081175.7,286046993.8,N
1588081195.6,286046995.5,N
1588081215.4,286046995.4,N
1588081235.2,286046995.9,N
1588081255.1,286046994.9,Y
1588081256.0,286046994.9,P
1588081275.8,286047000.8,N
1588081295.7,286047001.2,N
1588081315.5,286047001.0,N
1588081335.3,286047000.0,N
1588081355.2,286047000.8,N
1588081375.0,286047000.0,N
1588081375.9,286047000.0,N
1588081395.8,286047000.6,N
1588081415.6,286047000.0,N
1588081435.4,286047002.2,N
1588081455.3,286047001.7,N
1588081475.1,286047001.4,N
1588081495.9,286047001.8,N
1588081515.7,286047002.3,N
1588081535.5,286047002.3,N
1588081555.4,286047002.4,N
1588081575.2,286047001.7,N
1588081595.0,286047001.4,N
1588081595.9,286047001.4,N
1588081615.8,286047003.9,N
1588081635.6,286047003.8,N
1588081655.5,286047005.9,N
1588081675.3,286047003.2,N
1588081695.1,286047004.3,N
1588081715.9,286047001.6,N
1588081735.7,286047004.3,N
1588081755.5,286047001.4,N
1588081775.4,286047001.5,N
1588081795.2,286047002.2,N
1588081815.1,286047002.7,N
1588081816.0,286047002.7,N
1588081835.8,286046999.8,N
1588081855.6,286047002.7,N
1588081875.5,286047001.0,N
1588081895.3,286046998.7,N
1588081915.2,286046998.5,N
1588081935.9,286046998.3,N
1588081955.7,286047000.8,N
1588081975.6,286046996.6,N
1588081995.4,286046996.6,N
1588082015.2,286046999.5,N
1588082035.1,286046999.0,N
1588082036.0,286046999.0,N
1588082055.8,286046999.3,N
1588082075.7,286046996.6,N
1588082095.5,286046996.6,N
1588082115.3,286046997.1,N
1588082135.2,286046994.9,N
1588082155.0,286046994.9,N
1588082155.9,286046994.9,N
1588082175.8,286046998.4,N
1588082195.6,286046995.3,N
1588082215.4,286046996.2,N
1588082235.3,286046996.0,N
1588082255.1,286046993.2,N
1588082275.8,286046999.2,N
1588082295.7,286046994.9,N
1588082315.5,286046995.6,N
1588082335.4,286046997.6,N
1588082355.2,286046996.6,N
1588082375.0,286046996.8,N
1588082375.9,286046996.8,N
1588082395.8,286046996.8,N
